Year,Month,Day,Hour,Minute,Value (Times are PST for barometer in hPa)
2008,01,03,00,00,1004.40
2008,01,03,00,01,1004.44
2008,01,03,00,02,1004.40
2008,01,03,00,03,1004.44
2008,01,03,00,04,1004.44
2008,01,03,00,05,1004.44
2008,01,03,00,06,1004.37
2008,01,03,00,07,1004.34
2008,01,03,00,08,1004.34
2008,01,03,00,09,1004.30
2008,01,03,00,10,1004.30
2008,01,03,00,11,1004.27
2008,01,03,00,12,1004.27
2008,01,03,00,13,1004.27
2008,01,03,00,14,1004.23
2008,01,03,00,15,1004.17
2008,01,03,00,16,1004.17
2008,01,03,00,17,1004.13
2008,01,03,00,18,1004.17
2008,01,03,00,19,1004.17
2008,01,03,00,20,1004.20
2008,01,03,00,21,1004.13
2008,01,03,00,22,1004.13
2008,01,03,00,23,1004.06
2008,01,03,00,24,1004.03
2008,01,03,00,25,1004.03
2008,01,03,00,26,1004.03
2008,01,03,00,27,1004.03
2008,01,03,00,28,1004.00
2008,01,03,00,29,1003.93
2008,01,03,00,30,1003.86
2008,01,03,00,31,1003.86
2008,01,03,00,32,1003.86
2008,01,03,00,33,1003.86
2008,01,03,00,34,1003.90
2008,01,03,00,35,1003.86
2008,01,03,00,36,1003.86
2008,01,03,00,37,1003.86
2008,01,03,00,38,1003.83
2008,01,03,00,39,1003.83
2008,01,03,00,40,1003.76
2008,01,03,00,41,1003.79
2008,01,03,00,42,1003.79
2008,01,03,00,43,1003.79
2008,01,03,00,44,1003.83
2008,01,03,00,45,1003.79
2008,01,03,00,46,1003.79
2008,01,03,00,47,1003.76
2008,01,03,00,48,1003.76
2008,01,03,00,49,1003.73
2008,01,03,00,50,1003.76
2008,01,03,00,51,1003.73
2008,01,03,00,52,1003.76
2008,01,03,00,53,1003.69
2008,01,03,00,54,1003.69
2008,01,03,00,55,1003.69
2008,01,03,00,56,1003.66
2008,01,03,00,57,1003.66
2008,01,03,00,58,1003.66
2008,01,03,00,59,1003.62
2008,01,03,01,00,1003.66
2008,01,03,01,01,1003.62
2008,01,03,01,02,1003.66
2008,01,03,01,03,1003.66
2008,01,03,01,04,1003.62
2008,01,03,01,05,1003.66
2008,01,03,01,06,1003.66
2008,01,03,01,07,1003.66
2008,01,03,01,08,1003.59
2008,01,03,01,09,1003.56
2008,01,03,01,10,1003.56
2008,01,03,01,11,1003.52
2008,01,03,01,12,1003.52
2008,01,03,01,13,1003.49
2008,01,03,01,14,1003.49
2008,01,03,01,15,1003.49
2008,01,03,01,16,1003.46
2008,01,03,01,17,1003.46
2008,01,03,01,18,1003.46
2008,01,03,01,19,1003.46
2008,01,03,01,20,1003.49
2008,01,03,01,21,1003.46
2008,01,03,01,22,1003.42
2008,01,03,01,23,1003.35
2008,01,03,01,24,1003.38
2008,01,03,01,25,1003.29
2008,01,03,01,26,1003.32
2008,01,03,01,27,1003.29
2008,01,03,01,28,1003.25
2008,01,03,01,29,1003.29
2008,01,03,01,30,1003.29
2008,01,03,01,31,1003.22
2008,01,03,01,32,1003.22
2008,01,03,01,33,1003.25
2008,01,03,01,34,1003.18
2008,01,03,01,35,1003.22
2008,01,03,01,36,1003.18
2008,01,03,01,37,1003.18
2008,01,03,01,38,1003.18
2008,01,03,01,39,1003.18
2008,01,03,01,40,1003.22
2008,01,03,01,41,1003.15
2008,01,03,01,42,1003.12
2008,01,03,01,43,1003.12
2008,01,03,01,44,1003.12
2008,01,03,01,45,1003.08
2008,01,03,01,46,1003.08
2008,01,03,01,47,1003.05
2008,01,03,01,48,1002.98
2008,01,03,01,49,1002.98
2008,01,03,01,50,1003.01
2008,01,03,01,51,1003.01
2008,01,03,01,52,1003.05
2008,01,03,01,53,1003.01
2008,01,03,01,54,1003.05
2008,01,03,01,55,1003.05
2008,01,03,01,56,1003.05
2008,01,03,01,57,1002.98
2008,01,03,01,58,1002.95
2008,01,03,01,59,1002.88
2008,01,03,02,00,1002.88
2008,01,03,02,01,1002.88
2008,01,03,02,02,1002.88
2008,01,03,02,03,1002.91
2008,01,03,02,04,1002.91
2008,01,03,02,05,1002.95
2008,01,03,02,06,1002.91
2008,01,03,02,07,1002.95
2008,01,03,02,08,1002.95
2008,01,03,02,09,1002.91
2008,01,03,02,10,1002.91
2008,01,03,02,11,1002.85
2008,01,03,02,12,1002.88
2008,01,03,02,13,1002.81
2008,01,03,02,14,1002.85
2008,01,03,02,15,1002.81
2008,01,03,02,16,1002.81
2008,01,03,02,17,1002.85
2008,01,03,02,18,1002.81
2008,01,03,02,19,1002.74
2008,01,03,02,20,1002.78
2008,01,03,02,21,1002.74
2008,01,03,02,22,1002.74
2008,01,03,02,23,1002.74
2008,01,03,02,24,1002.74
2008,01,03,02,25,1002.71
2008,01,03,02,26,1002.71
2008,01,03,02,27,1002.71
2008,01,03,02,28,1002.68
2008,01,03,02,29,1002.68
2008,01,03,02,30,1002.68
2008,01,03,02,31,1002.64
2008,01,03,02,32,1002.64
2008,01,03,02,33,1002.61
2008,01,03,02,34,1002.57
2008,01,03,02,35,1002.57
2008,01,03,02,36,1002.61
2008,01,03,02,37,1002.57
2008,01,03,02,38,1002.57
2008,01,03,02,39,1002.54
2008,01,03,02,40,1002.54
2008,01,03,02,41,1002.51
2008,01,03,02,42,1002.51
2008,01,03,02,43,1002.44
2008,01,03,02,44,1002.41
2008,01,03,02,45,1002.47
2008,01,03,02,46,1002.44
2008,01,03,02,47,1002.44
2008,01,03,02,48,1002.44
2008,01,03,02,49,1002.51
2008,01,03,02,50,1002.54
2008,01,03,02,51,1002.51
2008,01,03,02,52,1002.51
2008,01,03,02,53,1002.47
2008,01,03,02,54,1002.47
2008,01,03,02,55,1002.47
2008,01,03,02,56,1002.47
2008,01,03,02,57,1002.47
2008,01,03,02,58,1002.41
2008,01,03,02,59,1002.41
2008,01,03,03,00,1002.27
2008,01,03,03,01,1002.27
2008,01,03,03,02,1002.24
2008,01,03,03,03,1002.27
2008,01,03,03,04,1002.34
2008,01,03,03,05,1002.25
2008,01,03,03,06,1002.34
2008,01,03,03,07,1002.24
2008,01,03,03,08,1002.24
2008,01,03,03,09,1002.13
2008,01,03,03,10,1002.17
2008,01,03,03,11,1002.10
2008,01,03,03,12,1002.07
2008,01,03,03,13,1002.00
2008,01,03,03,14,1002.00
2008,01,03,03,15,1002.00
2008,01,03,03,16,1002.00
2008,01,03,03,17,1001.97
2008,01,03,03,18,1001.93
2008,01,03,03,19,1001.80
2008,01,03,03,20,1001.76
2008,01,03,03,21,1001.76
2008,01,03,03,22,1001.76
2008,01,03,03,23,1001.80
2008,01,03,03,24,1001.76
2008,01,03,03,25,1001.69
2008,01,03,03,26,1001.63
2008,01,03,03,27,1001.63
2008,01,03,03,28,1001.63
2008,01,03,03,29,1001.59
2008,01,03,03,30,1001.59
2008,01,03,03,31,1001.56
2008,01,03,03,32,1001.56
2008,01,03,03,33,1001.56
2008,01,03,03,34,1001.52
2008,01,03,03,35,1001.49
2008,01,03,03,36,1001.46
2008,01,03,03,37,1001.49
2008,01,03,03,38,1001.46
2008,01,03,03,39,1001.39
2008,01,03,03,40,1001.36
2008,01,03,03,41,1001.32
2008,01,03,03,42,1001.25
2008,01,03,03,43,1001.22
2008,01,03,03,44,1001.19
2008,01,03,03,45,1001.12
2008,01,03,03,46,1001.12
2008,01,03,03,47,1001.12
2008,01,03,03,48,1001.08
2008,01,03,03,49,1001.08
2008,01,03,03,50,1001.08
2008,01,03,03,51,1001.02
2008,01,03,03,52,1001.05
2008,01,03,03,53,1001.05
2008,01,03,03,54,1000.98
2008,01,03,03,55,1000.92
2008,01,03,03,56,1000.92
2008,01,03,03,57,1000.88
2008,01,03,03,58,1000.81
2008,01,03,03,59,1000.81
2008,01,03,04,00,1000.81
2008,01,03,04,01,1000.75
2008,01,03,04,02,1000.75
2008,01,03,04,03,1000.71
2008,01,03,04,06,1000.68
2008,01,03,04,07,1000.68
2008,01,03,04,08,1000.68
2008,01,03,04,09,1000.64
2008,01,03,04,10,1000.68
2008,01,03,04,11,1000.68
2008,01,03,04,12,1000.77
2008,01,03,04,13,1000.64
2008,01,03,04,14,1000.58
2008,01,03,04,15,1000.54
2008,01,03,04,16,1000.51
2008,01,03,04,17,1000.48
2008,01,03,04,18,1000.44
2008,01,03,04,19,1000.41
2008,01,03,04,20,1000.37
2008,01,03,04,21,1000.37
2008,01,03,04,22,1000.37
2008,01,03,04,23,1000.34
2008,01,03,04,24,1000.27
2008,01,03,04,25,1000.34
2008,01,03,04,26,1000.27
2008,01,03,04,27,1000.20
2008,01,03,04,28,1000.20
2008,01,03,04,29,1000.20
2008,01,03,04,30,1000.17
2008,01,03,04,31,1000.14
2008,01,03,04,32,1000.17
2008,01,03,04,33,1000.17
2008,01,03,04,34,1000.17
2008,01,03,04,35,1000.17
2008,01,03,04,36,1000.04
2008,01,03,04,37,1000.00
2008,01,03,04,38,1000.00
2008,01,03,04,39,999.93
2008,01,03,04,40,999.87
2008,01,03,04,41,999.83
2008,01,03,04,42,999.76
2008,01,03,04,43,999.70
2008,01,03,04,44,999.76
2008,01,03,04,45,999.66
2008,01,03,04,46,999.62
2008,01,03,04,47,999.53
2008,01,03,04,48,999.53
2008,01,03,04,49,999.46
2008,01,03,04,50,999.49
2008,01,03,04,51,999.49
2008,01,03,04,52,999.49
2008,01,03,04,53,999.53
2008,01,03,04,54,999.49
2008,01,03,04,55,999.46
2008,01,03,04,56,999.43
2008,01,03,04,57,999.32
2008,01,03,04,58,999.29
2008,01,03,04,59,999.26
2008,01,03,05,00,999.29
2008,01,03,05,01,999.29
2008,01,03,05,02,999.29
2008,01,03,05,03,999.29
2008,01,03,05,04,999.22
2008,01,03,05,05,999.26
2008,01,03,05,06,999.19
2008,01,03,05,07,999.22
2008,01,03,05,08,999.22
2008,01,03,05,09,999.15
2008,01,03,05,10,999.22
2008,01,03,05,11,999.15
2008,01,03,05,12,999.15
2008,01,03,05,13,999.15
2008,01,03,05,14,999.12
2008,01,03,05,15,999.09
2008,01,03,05,16,999.02
2008,01,03,05,17,998.99
2008,01,03,05,18,998.92
2008,01,03,05,19,998.92
2008,01,03,05,20,998.85
2008,01,03,05,21,998.82
2008,01,03,05,22,998.78
2008,01,03,05,23,998.71
2008,01,03,05,24,998.71
2008,01,03,05,25,998.68
2008,01,03,05,26,998.54
2008,01,03,05,27,998.54
2008,01,03,05,28,998.65
2008,01,03,05,29,998.51
2008,01,03,05,30,998.54
2008,01,03,05,31,998.54
2008,01,03,05,32,998.51
2008,01,03,05,33,998.48
2008,01,03,05,34,998.44
2008,01,03,05,35,998.44
2008,01,03,05,36,998.34
2008,01,03,05,37,998.34
2008,01,03,05,38,998.38
2008,01,03,05,39,998.34
2008,01,03,05,40,998.31
2008,01,03,05,41,998.27
2008,01,03,05,42,998.24
2008,01,03,05,43,998.14
2008,01,03,05,44,998.17
2008,01,03,05,45,998.17
2008,01,03,05,46,998.07
2008,01,03,05,47,998.07
2008,01,03,05,48,997.97
2008,01,03,05,49,998.00
2008,01,03,05,50,997.97
2008,01,03,05,51,997.94
2008,01,03,05,52,997.97
2008,01,03,05,53,997.90
2008,01,03,05,54,997.90
2008,01,03,05,55,997.94
2008,01,03,05,56,997.94
2008,01,03,05,57,997.87
2008,01,03,05,58,997.83
2008,01,03,05,59,997.87
2008,01,03,06,00,997.87
2008,01,03,06,01,997.87
2008,01,03,06,02,997.90
2008,01,03,06,03,997.87
2008,01,03,06,04,997.87
2008,01,03,06,05,997.87
2008,01,03,06,06,997.87
2008,01,03,06,07,997.80
2008,01,03,06,08,997.77
2008,01,03,06,09,997.80
2008,01,03,06,10,997.70
2008,01,03,06,11,997.63
2008,01,03,06,12,997.56
2008,01,03,06,13,997.56
2008,01,03,06,14,997.56
2008,01,03,06,15,997.46
2008,01,03,06,16,997.50
2008,01,03,06,17,997.50
2008,01,03,06,18,997.50
2008,01,03,06,19,997.39
2008,01,03,06,20,997.36
2008,01,03,06,21,997.36
2008,01,03,06,22,997.43
2008,01,03,06,23,997.50
2008,01,03,06,24,997.56
2008,01,03,06,25,997.50
2008,01,03,06,26,997.46
2008,01,03,06,27,997.53
2008,01,03,06,28,997.43
2008,01,03,06,29,997.33
2008,01,03,06,30,997.29
2008,01,03,06,31,997.29
2008,01,03,06,32,997.26
2008,01,03,06,33,997.26
2008,01,03,06,34,997.29
2008,01,03,06,35,997.33
2008,01,03,06,36,997.19
2008,01,03,06,37,997.12
2008,01,03,06,38,997.09
2008,01,03,06,39,997.02
2008,01,03,06,40,997.05
2008,01,03,06,41,997.02
2008,01,03,06,42,997.05
2008,01,03,06,43,997.09
2008,01,03,06,44,997.05
2008,01,03,06,45,997.02
2008,01,03,06,46,996.95
2008,01,03,06,47,996.95
2008,01,03,06,48,996.95
2008,01,03,06,49,996.92
2008,01,03,06,50,996.85
2008,01,03,06,51,996.85
2008,01,03,06,52,996.78
2008,01,03,06,53,996.82
2008,01,03,06,54,996.82
2008,01,03,06,55,996.78
2008,01,03,06,56,996.75
2008,01,03,06,57,996.78
2008,01,03,06,58,996.75
2008,01,03,06,59,996.75
2008,01,03,07,00,996.72
2008,01,03,07,01,996.75
2008,01,03,07,02,996.72
2008,01,03,07,03,996.65
2008,01,03,07,04,996.65
2008,01,03,07,05,996.51
2008,01,03,07,06,996.55
2008,01,03,07,07,996.55
2008,01,03,07,08,996.48
2008,01,03,07,09,996.48
2008,01,03,07,10,996.45
2008,01,03,07,11,996.48
2008,01,03,07,12,996.45
2008,01,03,07,13,996.34
2008,01,03,07,14,996.31
2008,01,03,07,15,996.34
2008,01,03,07,16,996.28
2008,01,03,07,17,996.31
2008,01,03,07,18,996.31
2008,01,03,07,19,996.28
2008,01,03,07,20,996.28
2008,01,03,07,21,996.21
2008,01,03,07,22,996.21
2008,01,03,07,23,996.17
2008,01,03,07,24,996.08
2008,01,03,07,25,995.94
2008,01,03,07,26,995.84
2008,01,03,07,27,995.77
2008,01,03,07,28,995.84
2008,01,03,07,29,995.80
2008,01,03,07,30,995.80
2008,01,03,07,31,995.77
2008,01,03,07,32,995.73
2008,01,03,07,33,995.84
2008,01,03,07,34,995.70
2008,01,03,07,35,995.77
2008,01,03,07,36,995.67
2008,01,03,07,37,995.67
2008,01,03,07,38,995.63
2008,01,03,07,39,995.60
2008,01,03,07,40,995.56
2008,01,03,07,41,995.53
2008,01,03,07,42,995.60
2008,01,03,07,43,995.50
2008,01,03,07,44,995.50
2008,01,03,07,45,995.50
2008,01,03,07,46,995.40
2008,01,03,07,47,995.36
2008,01,03,07,48,995.36
2008,01,03,07,49,995.36
2008,01,03,07,50,995.36
2008,01,03,07,51,995.33
2008,01,03,07,52,995.29
2008,01,03,07,53,995.26
2008,01,03,07,54,995.29
2008,01,03,07,55,995.29
2008,01,03,07,56,995.29
2008,01,03,07,57,995.29
2008,01,03,07,58,995.29
2008,01,03,07,59,995.26
2008,01,03,08,00,995.26
2008,01,03,08,01,995.19
2008,01,03,08,02,995.16
2008,01,03,08,03,995.12
2008,01,03,08,04,995.12
2008,01,03,08,05,995.06
2008,01,03,08,06,994.92
2008,01,03,08,07,994.96
2008,01,03,08,08,994.89
2008,01,03,08,09,994.79
2008,01,03,08,10,994.82
2008,01,03,08,11,994.72
2008,01,03,08,12,994.75
2008,01,03,08,13,994.75
2008,01,03,08,14,994.79
2008,01,03,08,15,994.75
2008,01,03,08,16,994.75
2008,01,03,08,17,994.79
2008,01,03,08,18,994.72
2008,01,03,08,19,994.75
2008,01,03,08,20,994.68
2008,01,03,08,21,994.65
2008,01,03,08,22,994.58
2008,01,03,08,23,994.48
2008,01,03,08,24,994.48
2008,01,03,08,25,994.45
2008,01,03,08,26,994.38
2008,01,03,08,27,994.28
2008,01,03,08,28,994.21
2008,01,03,08,29,994.21
2008,01,03,08,30,994.18
2008,01,03,08,31,994.21
2008,01,03,08,32,994.18
2008,01,03,08,33,994.11
2008,01,03,08,34,994.11
2008,01,03,08,35,994.11
2008,01,03,08,36,994.01
2008,01,03,08,37,993.97
2008,01,03,08,38,993.94
2008,01,03,08,39,993.91
2008,01,03,08,40,993.91
2008,01,03,08,41,993.87
2008,01,03,08,42,993.77
2008,01,03,08,43,993.74
2008,01,03,08,44,993.70
2008,01,03,08,45,993.70
2008,01,03,08,46,993.63
2008,01,03,08,47,993.57
2008,01,03,08,48,993.57
2008,01,03,08,49,993.60
2008,01,03,08,50,993.57
2008,01,03,08,51,993.60
2008,01,03,08,52,993.67
2008,01,03,08,53,993.63
2008,01,03,08,54,993.60
2008,01,03,08,55,993.63
2008,01,03,08,56,993.70
2008,01,03,08,57,993.67
2008,01,03,08,58,993.67
2008,01,03,08,59,993.70
2008,01,03,09,00,993.70
2008,01,03,09,01,993.79
2008,01,03,09,02,993.74
2008,01,03,09,03,993.77
2008,01,03,09,04,993.74
2008,01,03,09,05,993.77
2008,01,03,09,06,993.70
2008,01,03,09,07,993.67
2008,01,03,09,08,993.63
2008,01,03,09,09,993.63
2008,01,03,09,10,993.63
2008,01,03,09,11,993.67
2008,01,03,09,12,993.67
2008,01,03,09,13,993.77
2008,01,03,09,14,993.70
2008,01,03,09,15,993.77
2008,01,03,09,16,993.74
2008,01,03,09,17,993.74
2008,01,03,09,18,993.74
2008,01,03,09,19,993.63
2008,01,03,09,20,993.67
2008,01,03,09,21,993.70
2008,01,03,09,22,993.70
2008,01,03,09,23,993.70
2008,01,03,09,24,993.67
2008,01,03,09,25,993.63
2008,01,03,09,26,993.60
2008,01,03,09,27,993.57
2008,01,03,09,28,993.50
2008,01,03,09,29,993.50
2008,01,03,09,30,993.43
2008,01,03,09,31,993.43
2008,01,03,09,32,993.43
2008,01,03,09,33,993.43
2008,01,03,09,34,993.40
2008,01,03,09,35,993.36
2008,01,03,09,36,993.40
2008,01,03,09,37,993.30
2008,01,03,09,38,993.33
2008,01,03,09,39,993.30
2008,01,03,09,40,993.23
2008,01,03,09,41,993.23
2008,01,03,09,42,993.26
2008,01,03,09,43,993.23
2008,01,03,09,44,993.23
2008,01,03,09,45,993.23
2008,01,03,09,46,993.19
2008,01,03,09,47,993.19
2008,01,03,09,48,993.19
2008,01,03,09,49,993.19
2008,01,03,09,50,993.13
2008,01,03,09,51,993.09
2008,01,03,09,52,993.06
2008,01,03,09,53,993.09
2008,01,03,09,54,993.09
2008,01,03,09,55,993.03
2008,01,03,09,56,993.03
2008,01,03,09,57,992.99
2008,01,03,09,58,992.96
2008,01,03,09,59,992.89
2008,01,03,10,00,992.86
2008,01,03,10,01,992.76
2008,01,03,10,02,992.75
2008,01,03,10,03,992.72
2008,01,03,10,04,992.65
2008,01,03,10,05,992.69
2008,01,03,10,06,992.62
2008,01,03,10,07,992.62
2008,01,03,10,08,992.58
2008,01,03,10,09,992.55
2008,01,03,10,10,992.48
2008,01,03,10,11,992.52
2008,01,03,10,12,992.48
2008,01,03,10,13,992.45
2008,01,03,10,14,992.48
2008,01,03,10,15,992.42
2008,01,03,10,16,992.48
2008,01,03,10,17,992.42
2008,01,03,10,18,992.35
2008,01,03,10,19,992.42
2008,01,03,10,20,992.38
2008,01,03,10,21,992.42
2008,01,03,10,22,992.38
2008,01,03,10,23,992.38
2008,01,03,10,24,992.31
2008,01,03,10,25,992.35
2008,01,03,10,26,992.28
2008,01,03,10,27,992.14
2008,01,03,10,28,992.14
2008,01,03,10,29,992.11
2008,01,03,10,30,992.04
2008,01,03,10,31,991.94
2008,01,03,10,32,991.91
2008,01,03,10,33,991.81
2008,01,03,10,34,991.70
2008,01,03,10,35,991.64
2008,01,03,10,36,991.57
2008,01,03,10,37,991.50
2008,01,03,10,38,991.53
2008,01,03,10,39,991.47
2008,01,03,10,40,991.50
2008,01,03,10,41,991.57
2008,01,03,10,42,991.53
2008,01,03,10,43,991.50
2008,01,03,10,44,991.47
2008,01,03,10,45,991.50
2008,01,03,10,46,991.50
2008,01,03,10,47,991.47
2008,01,03,10,48,991.47
2008,01,03,10,49,991.33
2008,01,03,10,50,991.26
2008,01,03,10,51,991.30
2008,01,03,10,52,991.23
2008,01,03,10,53,991.30
2008,01,03,10,54,991.23
2008,01,03,10,55,991.23
2008,01,03,10,56,991.20
2008,01,03,10,57,991.09
2008,01,03,10,58,991.09
2008,01,03,10,59,991.06
2008,01,03,11,00,991.06
2008,01,03,11,01,990.99
2008,01,03,11,02,991.03
2008,01,03,11,03,991.03
2008,01,03,11,04,990.96
2008,01,03,11,05,990.93
2008,01,03,11,06,990.93
2008,01,03,11,07,990.93
2008,01,03,11,08,990.82
2008,01,03,11,09,990.72
2008,01,03,11,10,990.69
2008,01,03,11,11,990.76
2008,01,03,11,12,990.69
2008,01,03,11,13,990.65
2008,01,03,11,14,990.62
2008,01,03,11,15,990.55
2008,01,03,11,16,990.52
2008,01,03,11,17,990.45
2008,01,03,11,18,990.42
2008,01,03,11,19,990.49
2008,01,03,11,20,990.38
2008,01,03,11,21,990.38
2008,01,03,11,22,990.32
2008,01,03,11,23,990.38
2008,01,03,11,24,990.28
2008,01,03,11,25,990.28
2008,01,03,11,26,990.25
2008,01,03,11,27,990.18
2008,01,03,11,28,990.15
2008,01,03,11,29,990.18
2008,01,03,11,30,990.15
2008,01,03,11,31,990.15
2008,01,03,11,32,990.08
2008,01,03,11,33,990.04
2008,01,03,11,34,990.01
2008,01,03,11,35,989.94
2008,01,03,11,36,989.91
2008,01,03,11,37,989.84
2008,01,03,11,38,989.84
2008,01,03,11,39,989.74
2008,01,03,11,40,989.67
2008,01,03,11,41,989.58
2008,01,03,11,42,989.57
2008,01,03,11,43,989.57
2008,01,03,11,44,989.47
2008,01,03,11,45,989.44
2008,01,03,11,46,989.40
2008,01,03,11,47,989.37
2008,01,03,11,48,989.30
2008,01,03,11,49,989.27
2008,01,03,11,50,989.20
2008,01,03,11,51,989.20
2008,01,03,11,52,989.16
2008,01,03,11,53,989.20
2008,01,03,11,54,989.13
2008,01,03,11,55,989.10
2008,01,03,11,56,988.97
2008,01,03,11,57,988.93
2008,01,03,11,58,988.86
2008,01,03,11,59,988.79
2008,01,03,12,00,988.79
2008,01,03,12,01,988.76
2008,01,03,12,02,988.72
2008,01,03,12,03,988.69
2008,01,03,12,04,988.66
2008,01,03,12,05,988.59
2008,01,03,12,06,988.62
2008,01,03,12,07,988.55
2008,01,03,12,08,988.52
2008,01,03,12,09,988.45
2008,01,03,12,10,988.39
2008,01,03,12,11,988.42
2008,01,03,12,12,988.32
2008,01,03,12,13,988.32
2008,01,03,12,14,988.25
2008,01,03,12,15,988.18
2008,01,03,12,16,988.18
2008,01,03,12,17,988.11
2008,01,03,12,18,988.08
2008,01,03,12,19,988.05
2008,01,03,12,20,988.05
2008,01,03,12,21,987.98
2008,01,03,12,22,987.91
2008,01,03,12,23,987.78
2008,01,03,12,24,987.74
2008,01,03,12,25,987.71
2008,01,03,12,26,987.61
2008,01,03,12,27,987.54
2008,01,03,12,28,987.57
2008,01,03,12,29,987.51
2008,01,03,12,30,987.47
2008,01,03,12,31,987.47
2008,01,03,12,32,987.44
2008,01,03,12,33,987.44
2008,01,03,12,34,987.34
2008,01,03,12,35,987.27
2008,01,03,12,36,987.27
2008,01,03,12,37,987.23
2008,01,03,12,38,987.13
2008,01,03,12,39,987.17
2008,01,03,12,40,987.00
2008,01,03,12,41,986.96
2008,01,03,12,42,986.96
2008,01,03,12,43,986.86
2008,01,03,12,44,986.90
2008,01,03,12,45,986.79
2008,01,03,12,46,986.73
2008,01,03,12,47,986.69
2008,01,03,12,48,986.69
2008,01,03,12,49,986.62
2008,01,03,12,50,986.52
2008,01,03,12,51,986.56
2008,01,03,12,52,986.52
2008,01,03,12,53,986.49
2008,01,03,12,54,986.46
2008,01,03,12,55,986.49
2008,01,03,12,56,986.40
2008,01,03,12,57,986.32
2008,01,03,12,58,986.32
2008,01,03,12,59,986.25
2008,01,03,13,00,986.35
2008,01,03,13,01,986.29
2008,01,03,13,02,986.25
2008,01,03,13,03,986.25
2008,01,03,13,04,986.15
2008,01,03,13,05,986.15
2008,01,03,13,06,986.08
2008,01,03,13,07,986.05
2008,01,03,13,08,986.02
2008,01,03,13,09,986.05
2008,01,03,13,10,985.91
2008,01,03,13,11,985.85
2008,01,03,13,12,985.91
2008,01,03,13,13,985.88
2008,01,03,13,14,985.85
2008,01,03,13,15,985.85
2008,01,03,13,16,985.78
2008,01,03,13,17,985.74
2008,01,03,13,18,985.61
2008,01,03,13,19,985.64
2008,01,03,13,20,985.61
2008,01,03,13,21,985.52
2008,01,03,13,22,985.51
2008,01,03,13,23,985.38
2008,01,03,13,24,985.34
2008,01,03,13,25,985.24
2008,01,03,13,26,985.27
2008,01,03,13,27,985.17
2008,01,03,13,28,985.10
2008,01,03,13,29,985.20
2008,01,03,13,30,985.20
2008,01,03,13,31,985.17
2008,01,03,13,32,985.13
2008,01,03,13,33,985.07
2008,01,03,13,34,985.07
2008,01,03,13,35,985.03
2008,01,03,13,36,984.93
2008,01,03,13,37,984.90
2008,01,03,13,38,984.83
2008,01,03,13,39,984.83
2008,01,03,13,40,984.80
2008,01,03,13,41,984.73
2008,01,03,13,42,984.69
2008,01,03,13,43,984.69
2008,01,03,13,44,984.66
2008,01,03,13,45,984.66
2008,01,03,13,46,984.66
2008,01,03,13,47,984.63
2008,01,03,13,48,984.63
2008,01,03,13,49,984.63
2008,01,03,13,50,984.56
2008,01,03,13,51,984.49
2008,01,03,13,52,984.53
2008,01,03,13,53,984.49
2008,01,03,13,54,984.46
2008,01,03,13,55,984.39
2008,01,03,13,56,984.42
2008,01,03,13,57,984.39
2008,01,03,13,58,984.46
2008,01,03,13,59,984.46
2008,01,03,14,00,984.42
2008,01,03,14,01,984.42
2008,01,03,14,02,984.39
2008,01,03,14,03,984.36
2008,01,03,14,04,984.36
2008,01,03,14,05,984.29
2008,01,03,14,06,984.32
2008,01,03,14,07,984.29
2008,01,03,14,08,984.25
2008,01,03,14,09,984.25
2008,01,03,14,10,984.22
2008,01,03,14,11,984.19
2008,01,03,14,12,984.19
2008,01,03,14,13,984.19
2008,01,03,14,14,984.12
2008,01,03,14,15,984.15
2008,01,03,14,16,984.15
2008,01,03,14,17,984.08
2008,01,03,14,18,984.12
2008,01,03,14,19,984.12
2008,01,03,14,20,984.08
2008,01,03,14,21,984.05
2008,01,03,14,22,984.05
2008,01,03,14,23,983.98
2008,01,03,14,24,983.92
2008,01,03,14,25,983.95
2008,01,03,14,26,983.88
2008,01,03,14,27,983.85
2008,01,03,14,28,983.75
2008,01,03,14,29,983.75
2008,01,03,14,30,983.75
2008,01,03,14,31,983.71
2008,01,03,14,32,983.75
2008,01,03,14,33,983.75
2008,01,03,14,34,983.92
2008,01,03,14,35,983.98
2008,01,03,14,36,984.11
2008,01,03,14,37,984.12
2008,01,03,14,38,984.15
2008,01,03,14,39,984.19
2008,01,03,14,40,984.19
2008,01,03,14,41,984.09
2008,01,03,14,42,984.12
2008,01,03,14,43,984.02
2008,01,03,14,44,983.98
2008,01,03,14,45,983.89
2008,01,03,14,46,983.81
2008,01,03,14,47,983.71
2008,01,03,14,48,983.71
2008,01,03,14,49,983.78
2008,01,03,14,50,983.78
2008,01,03,14,51,983.75
2008,01,03,14,52,983.68
2008,01,03,14,53,983.61
2008,01,03,14,54,983.61
2008,01,03,14,55,983.54
2008,01,03,14,56,983.61
2008,01,03,14,57,983.64
2008,01,03,14,58,983.61
2008,01,03,14,59,983.54
2008,01,03,15,00,983.44
2008,01,03,15,01,983.51
2008,01,03,15,02,983.58
2008,01,03,15,03,983.61
2008,01,03,15,04,983.58
2008,01,03,15,05,983.58
2008,01,03,15,06,983.51
2008,01,03,15,07,983.51
2008,01,03,15,08,983.51
2008,01,03,15,09,983.54
2008,01,03,15,10,983.54
2008,01,03,15,11,983.61
2008,01,03,15,12,983.58
2008,01,03,15,13,983.58
2008,01,03,15,14,983.64
2008,01,03,15,15,983.58
2008,01,03,15,16,983.61
2008,01,03,15,17,983.58
2008,01,03,15,18,983.61
2008,01,03,15,19,983.64
2008,01,03,15,20,983.64
2008,01,03,15,21,983.68
2008,01,03,15,22,983.75
2008,01,03,15,23,983.75
2008,01,03,15,24,983.81
2008,01,03,15,25,983.94
2008,01,03,15,26,983.95
2008,01,03,15,27,983.76
2008,01,03,15,28,983.81
2008,01,03,15,29,983.85
2008,01,03,15,30,983.75
2008,01,03,15,31,983.75
2008,01,03,15,32,983.71
2008,01,03,15,33,983.64
2008,01,03,15,34,983.74
2008,01,03,15,35,983.78
2008,01,03,15,36,983.71
2008,01,03,15,37,983.64
2008,01,03,15,38,983.75
2008,01,03,15,39,983.54
2008,01,03,15,40,983.86
2008,01,03,15,41,983.85
2008,01,03,15,42,983.88
2008,01,03,15,43,983.85
2008,01,03,15,44,983.88
2008,01,03,15,45,983.92
2008,01,03,15,46,983.88
2008,01,03,15,47,983.98
2008,01,03,15,48,984.08
2008,01,03,15,49,984.05
2008,01,03,15,50,983.98
2008,01,03,15,51,984.08
2008,01,03,15,52,984.22
2008,01,03,15,53,984.09
2008,01,03,15,54,984.24
2008,01,03,15,55,984.12
2008,01,03,15,56,984.19
2008,01,03,15,57,984.15
2008,01,03,15,58,983.98
2008,01,03,15,59,983.75
2008,01,03,16,00,983.95
2008,01,03,16,01,983.88
2008,01,03,16,02,983.81
2008,01,03,16,03,983.61
2008,01,03,16,04,983.58
2008,01,03,16,05,983.78
2008,01,03,16,06,983.78
2008,01,03,16,07,983.81
2008,01,03,16,08,983.81
2008,01,03,16,09,984.05
2008,01,03,16,10,984.08
2008,01,03,16,11,984.05
2008,01,03,16,12,983.85
2008,01,03,16,13,984.22
2008,01,03,16,14,984.15
2008,01,03,16,15,984.25
2008,01,03,16,16,984.25
2008,01,03,16,17,984.22
2008,01,03,16,18,984.56
2008,01,03,16,19,984.46
2008,01,03,16,20,984.49
2008,01,03,16,21,984.66
2008,01,03,16,22,984.76
2008,01,03,16,23,985.02
2008,01,03,16,24,985.29
2008,01,03,16,25,985.27
2008,01,03,16,26,985.34